HEMAVAN current weather conditions

sailwx.info

Wind from 320 at 4 knots

Air temperature 2.0° C
Visibility: greater than 5.4 NM
Dewpoint 1.0° C

Last reported at 2014-Oct-30 12:20 UTC.
Time now 2014-Oct-30 13:53 UTC

Location: N 65°48' E 015°05'.
View on Google Maps.

See reports from other nearby stations

  
Tides and Currents Weather Stations Pressure Air Temp Water Temp Dewpoint Dewpoint Depression Visibility Wind Speed Wind Dir Waves Ship Positions
date/time (UTC)wind fromknots sea level pressurealtimeterstation pressurevisibilityair tempwater tempwave heightnotes
2014-Oct-30 12:20 320 4 5.4 2.0
2014-Oct-30 11:50 4.3 1.0 Light drizzle.
2014-Oct-30 11:20 5.4 1.0 Light rain.
2014-Oct-30 10:50 5.4 1.0 Light rain.
2014-Oct-30 10:20 010 3 0.8-0.0 Light snow.
2014-Oct-30 09:50 340 3 0.6-0.0 Light snow.
2014-Oct-30 09:20 010 4 1.9 1.0 Light snow.
2014-Oct-30 08:50 020 5 5.4 1.0 Light snow.
2014-Oct-30 08:20 010 3 1.7 1.0 Light snow.
2014-Oct-30 07:50 020 4 4.9 1.0 Light rain.
2014-Oct-30 07:20 1.6 1.0 Light snow.
2014-Oct-30 06:50 4.3 1.0 Rain snow.
2014-Oct-30 06:20 040 5 5.4 1.0 Light rain.
2014-Oct-30 05:50 340 3 4.3 2.0 Light rain.
2014-Oct-30 05:20 300 6 4.9 1.0 Light rain.
2014-Oct-30 04:50 290 7 5.4 2.0 Precipitation.
2014-Oct-30 04:20 090 3 1.1-0.0 Light snow.
2014-Oct-30 03:50 0.6 1.0 Light snow.
2014-Oct-30 03:20 360 4 2.0 1.0 Light rain.
2014-Oct-30 02:50 320 4 3.2 1.0 Light snow.
2014-Oct-30 02:20 310 3 0.8 1.0 Light snow.
2014-Oct-30 01:50 5.4 1.0
2014-Oct-30 01:20 100 3 3.2 1.0 Light rain snow.
2014-Oct-30 00:50 5.4 1.0 Light rain.
2014-Oct-30 00:20 100 4 5.4 1.0 Light rain.
2014-Oct-29 23:50 2.7 1.0 Light snow.
2014-Oct-29 23:20 5.4 1.0 Light snow.
2014-Oct-29 22:50 5.4 1.0
2014-Oct-29 22:20 350 4 5.4 1.0
2014-Oct-29 21:50 1.5 1.0 Light snow.
2014-Oct-29 21:20 290 8 2.0 1.0 Light snow.
2014-Oct-29 20:50 290 5 5.4 1.0 Light rain.
2014-Oct-29 20:20 280 7 5.4 2.0
2014-Oct-29 19:50 320 5 5.4 2.0
2014-Oct-29 19:20 5.4-0.0
2014-Oct-29 18:50 5.4 1.0 Precipitation.
2014-Oct-29 18:20 4.9 1.0 Light rain snow.
2014-Oct-29 17:50 330 4 5.4 1.0 Precipitation.
2014-Oct-29 17:20 040 3 5.4 1.0 Light rain.
2014-Oct-29 16:50 300 6 0.8 1.0 Light snow.
2014-Oct-29 16:20 4.3 1.0 Light snow.
2014-Oct-29 15:50 300 3 5.4 1.0
2014-Oct-29 15:20 2.3 1.0 Light snow.
2014-Oct-29 14:50 060 5 2.7 1.0 Light rain snow.
2014-Oct-29 14:20 5.4 1.0 Light rain.
2014-Oct-29 13:50 5.4 2.0 Light rain.
2014-Oct-29 13:20 040 7 5.4 2.0 Light rain.
2014-Oct-29 12:50 5.4 2.0 Light rain.
2014-Oct-29 12:20 310 5 5.4 3.0
2014-Oct-29 11:50 290 10 5.4 2.0
2014-Oct-29 11:20 350 5 5.4 2.0
2014-Oct-29 10:50 270 7 5.4 2.0 Light snow.
2014-Oct-29 10:20 280 1 5.4 2.0
2014-Oct-29 09:50 070 5 5.4 1.0
2014-Oct-29 09:20 260 3 1.3 1.0 Light snow.
2014-Oct-29 08:50 170 2 5.4 1.0 Precipitation.
2014-Oct-29 08:20 5.4 1.0
2014-Oct-29 07:50 5.4 1.0
2014-Oct-29 07:20 5.4-0.0
2014-Oct-29 06:50 5.4 1.0
2014-Oct-29 06:20 5.4 1.0 Light rain.
2014-Oct-29 05:50 5.4 1.0
2014-Oct-29 05:20 160 3 5.4 1.0
2014-Oct-29 04:50 5.4 1.0
2014-Oct-29 04:20 5.4 1.0
2014-Oct-29 03:50 5.4 1.0
2014-Oct-29 03:20 290 4 5.4 1.0
2014-Oct-29 02:50 280 6 5.4 2.0
2014-Oct-29 02:20 280 6 5.4 2.0
2014-Oct-29 01:50 280 4 5.4 2.0
2014-Oct-29 01:20 270 6 5.4 2.0
2014-Oct-29 00:50 5.4 2.0
2014-Oct-29 00:20 5.4 1.0 Light drizzle.
2014-Oct-28 23:50 5.4 1.0
2014-Oct-28 23:20 010 4 5.4 2.0
2014-Oct-28 22:50 280 4 5.4 2.0 Light drizzle.
2014-Oct-28 22:20 290 5 5.4 3.0
2014-Oct-28 21:50 330 6 5.4 3.0 Drizzle.
2014-Oct-28 21:20 110 3 5.4 3.0 Light drizzle.
2014-Oct-28 20:50 5.4 2.0 Drizzle.
2014-Oct-28 20:20 5.4 2.0 Light drizzle.
2014-Oct-28 19:50 5.4 2.0 Drizzle.
2014-Oct-28 19:20 5.4 3.0 Drizzle.
2014-Oct-28 18:50 160 1 5.4 3.0 Light drizzle.
2014-Oct-28 18:20 5.4 3.0 Drizzle.
2014-Oct-28 17:50 180 1 5.4 3.0 Light rain.
2014-Oct-28 17:20 140 2 5.4 2.0 Drizzle.
2014-Oct-28 16:50 150 3 5.4 3.0 Drizzle.
2014-Oct-28 16:20 160 4 5.4 3.0 Drizzle.
2014-Oct-28 15:50 160 3 5.4 3.0 Drizzle.
2014-Oct-28 15:20 5.4 4.0 Light drizzle.
2014-Oct-28 14:50 180 1 5.4 4.0
2014-Oct-28 14:20 160 3 5.4 4.0
2014-Oct-28 13:50 5.4 5.0
2014-Oct-28 13:20 5.4 5.0